This demonstration page uses our WeatherBlox Daily Observations layout. Learn more.

Left ArrowRight Arrow

44.8408, -93.29828

Hourly Observations for April 13, 2022

Temp ( °F °C ) Dew Point ( °F °C ) Humidity (%) Winds ( mph kmh ) Pressure ( in mb ) Visibility ( mi km ) Precip ( " mm )
12:22 am 00:22 Cloudy with Light Rain 46 7.8 42 5.6 86 86 N 18 30 29.40 996 10 16 0.00 0.00
12:51 am 00:51 Cloudy with Nearby Thunderstorms 45 7 43 6 93 93 NNE 17 28 29.42 996 6 10 0.01 0.25
12:53 am 00:53 Cloudy with Nearby Thunderstorms 45 7.2 42 5.6 90 90 NNE 18 30 29.41 996 4 6 0.01 0.25
1:16 am 01:16 Cloudy with Rain 45 7.2 42 5.6 90 90 ENE 20 31 29.42 996 5 8 0.07 1.78
1:44 am 01:44 Cloudy with Light Rain 46 7.8 42 5.6 86 86 ENE 21 33 29.41 996 7 11 0.12 3.05
1:53 am 01:53 Cloudy 46 7.8 43 6.1 89 89 ENE 17 28 29.41 996 10 16 0.12 3.05
2:53 am 02:53 Cloudy 46 7.8 43 6.1 89 89 E 18 30 29.41 996 10 16 0.01 0.25
3:53 am 03:53 Cloudy 47 8.3 44 6.7 90 90 E 10 17 29.41 996 10 16 0.00 0.00
4:53 am 04:53 Cloudy 47 8.3 44 6.7 90 90 E 8 13 29.42 996 10 16 0.00 0.00
5:53 am 05:53 Cloudy 47 8.3 45 7.2 93 93 Calm 29.44 997 10 16 0.00 0.00
6:53 am 06:53 Cloudy with Drizzle 46 7.8 44 6.7 93 93 WNW 7 11 29.48 998 3 5 0.01 0.25
7:06 am 07:06 Cloudy with Drizzle 46 7.8 44 6.7 93 93 WNW 7 11 29.49 999 2 3 0.00 0.00
7:17 am 07:17 Cloudy with Drizzle 46 7.8 44 6.7 93 93 WNW 8 13 29.50 999 3 4 0.01 0.25
7:41 am 07:41 Cloudy with Mist and Fog 47 8.3 45 7.2 93 93 W 9 15 29.51 999 3 5 0.01 0.25
7:53 am 07:53 Cloudy with Drizzle 47 8.3 45 7.2 93 93 W 8 13 29.49 999 2 3 0.01 0.25
8:15 am 08:15 Cloudy with Mist and Fog 46 7.8 44 6.7 93 93 W 13 20 29.50 999 4 6 0.00 0.00
8:27 am 08:27 Cloudy with Mist and Fog 46 7.8 43 6.1 89 89 W 20 31 29.51 999 5 8 0.00 0.00
8:45 am 08:45 Cloudy with Mist and Fog 44 6.7 42 5.6 93 93 W 17 28 29.51 999 5 8 0.00 0.00
8:53 am 08:53 Cloudy with Mist and Fog 44 6.7 41 5 89 89 W 14 22 29.51 999 5 8 0.00 0.00
9:44 am 09:44 Cloudy 41 5 38 3.3 89 89 W 16 26 29.56 1001 10 16 0.00 0.00
9:53 am 09:53 Cloudy 41 5 38 3.3 89 89 W 18 30 29.54 1001 10 16 0.00 0.00
10:06 am 10:06 Cloudy 39 3.9 36 2.2 89 89 W 16 26 29.58 1002 10 16 0.00 0.00
10:53 am 10:53 Cloudy 39 3.9 35 1.7 86 86 W 21 33 29.55 1001 10 16 0.00 0.00
11:33 am 11:33 Cloudy 37 2.8 32 0 82 82 W 21 33 29.62 1003 10 16 0.00 0.00
11:44 am 11:44 Cloudy 37 2.8 32 0 82 82 W 17 28 29.62 1003 10 16 0.00 0.00
11:53 am 11:53 Cloudy 37 2.8 31 -0.6 79 79 WSW 20 31 29.62 1003 10 16 0.00 0.00
12:53 pm 12:53 Cloudy 36 2.2 30 -1.1 79 79 WSW 12 19 29.62 1003 10 16 0.00 0.00
1:34 pm 13:34 Cloudy 36 2.2 27 -2.8 70 70 W 16 26 29.66 1004 10 16 0.00 0.00
1:53 pm 13:53 Cloudy 36 2.2 27 -2.8 70 70 W 14 22 29.61 1003 10 16 0.00 0.00
2:53 pm 14:53 Cloudy 37 2.8 26 -3.3 65 65 W 17 28 29.62 1003 10 16 0.00 0.00
3:53 pm 15:53 Cloudy 38 3.3 25 -3.9 60 60 W 16 26 29.63 1003 10 16 0.00 0.00
4:53 pm 16:53 Cloudy 38 3.3 24 -4.4 57 57 W 14 22 29.65 1004 10 16 0.00 0.00
5:53 pm 17:53 Cloudy 39 3.9 24 -4.4 55 55 W 14 22 29.65 1004 10 16 0.00 0.00
6:53 pm 18:53 Mostly Cloudy 39 3.9 22 -5.6 50 50 W 13 20 29.65 1004 10 16 0.00 0.00
7:53 pm 19:53 Mostly Cloudy 38 3.3 19 -7.2 46 46 W 14 22 29.65 1004 10 16 0.00 0.00
8:53 pm 20:53 Partly Cloudy 36 2.2 20 -6.7 52 52 W 13 20 29.66 1004 10 16 0.00 0.00
9:53 pm 21:53 Partly Cloudy 35 1.7 17 -8.3 48 48 W 18 30 29.66 1005 10 16 0.00 0.00
10:53 pm 22:53 Mostly Clear 34 1.1 16 -8.9 48 48 WSW 13 20 29.65 1004 10 16 0.00 0.00
11:53 pm 23:53 Mostly Clear 32 0 18 -7.8 56 56 WSW 8 13 29.63 1004 10 16 0.00 0.00

Powered by AerisWeather